CW3699 Weather Reports


Display with metric or nautical units.
time (UTC)temp
F
wind
direction
speed
MPH
gust
MPH
rain 1hr
in
rain 24hr
in
rain mn
in
humidity
%
barometer
mb
20221203050413 41 163 3.0 7.0 0.00 0.00 0.00 72 1001.2
20221203045913 41 170 3.0 7.0 0.00 0.00 0.00 72 1001.2
20221203045413 41 170 3.0 6.0 0.00 0.00 0.00 72 1001.2
20221203044913 41 166 3.0 6.0 0.00 0.00 0.00 71 1001.2
20221203043913 41 177 3.0 8.0 0.00 0.00 0.00 71 1001.4
20221203043412 41 166 4.0 8.0 0.00 0.00 0.00 71 1001.5
20221203042913 41 160 2.0 7.0 0.00 0.00 0.00 71 1001.5
20221203042413 41 163 3.0 7.0 0.00 0.00 0.00 72 1001.6
20221203041913 41 151 3.0 7.0 0.00 0.00 0.00 71 1001.7
20221203041413 41 187 3.0 7.0 0.00 0.00 0.00 71 1001.7
20221203040913 41 164 4.0 8.0 0.00 0.00 0.00 71 1001.9
20221203040413 41 165 3.0 8.0 0.00 0.00 0.00 71 1002.0
20221203035914 41 159 3.0 7.0 0.00 0.00 0.00 71 1002.0
20221203035413 41 169 5.0 9.0 0.00 0.00 0.00 71 1002.1
20221203034912 40 183 3.0 7.0 0.00 0.00 0.00 71 1002.1
20221203034413 40 150 3.0 6.0 0.00 0.00 0.00 71 1002.1
20221203033912 40 157 4.0 8.0 0.00 0.00 0.00 71 1002.3
20221203033412 40 180 3.0 9.0 0.00 0.00 0.00 71 1002.4
20221203032913 40 152 4.0 7.0 0.00 0.00 0.00 71 1002.5
20221203032413 40 167 3.0 7.0 0.00 0.00 0.00 70 1002.5
20221203031917 40 163 4.0 7.0 0.00 0.00 0.00 70 1002.7
20221203030913 40 147 3.0 9.0 0.00 0.00 0.00 70 1003.0
20221203030412 40 168 3.0 6.0 0.00 0.00 0.00 70 1003.1
20221203025414 40 160 3.0 7.0 0.00 0.00 0.00 70 1003.1
20221203024913 40 160 4.0 9.0 0.00 0.00 0.00 71 1003.1
20221203024413 39 151 3.0 5.0 0.00 0.00 0.00 70 1003.0
20221203023413 39 149 3.0 6.0 0.00 0.00 0.00 71 1003.3
20221203022913 39 152 3.0 5.0 0.00 0.00 0.00 71 1003.3
20221203022413 39 151 2.0 6.0 0.00 0.00 0.00 71 1003.3
20221203021412 39 175 2.0 8.0 0.00 0.00 0.00 71 1003.4
20221203020913 39 143 2.0 5.0 0.00 0.00 0.00 71 1003.7
20221203015413 39 166 3.0 6.0 0.00 0.00 0.00 71 1003.9
20221203014912 39 163 3.0 6.0 0.00 0.00 0.00 71 1004.0
20221203014413 39 158 3.0 5.0 0.00 0.00 0.00 72 1004.1
20221203012913 39 155 2.0 5.0 0.00 0.00 0.00 72 1004.6
20221203012413 39 128 3.0 6.0 0.00 0.00 0.00 72 1004.7
20221203011912 39 152 3.0 5.0 0.00 0.00 0.00 72 1004.9
20221203011413 39 158 2.0 5.0 0.00 0.00 0.00 71 1005.2
20221203010913 39 144 3.0 5.0 0.00 0.00 0.00 71 1005.2
20221203010412 39 156 2.0 6.0 0.00 0.00 0.00 71 1005.3
20221203005914 39 142 3.0 6.0 0.00 0.00 0.00 71 1005.4
20221203005413 39 161 2.0 6.0 0.00 0.00 0.00 72 1005.4
20221203004913 38 163 2.0 5.0 0.00 0.00 0.00 72 1005.4
20221203004413 38 164 2.0 6.0 0.00 0.00 0.00 72 1005.4
20221203003913 38 165 2.0 3.0 0.00 0.00 0.00 72 1005.5
20221203003412 38 148 2.0 6.0 0.00 0.00 0.00 72 1005.6
20221203002913 37 171 2.0 5.0 0.00 0.00 0.00 72 1005.6
20221203001912 37 152 2.0 3.0 0.00 0.00 0.00 72 1005.7
20221203000912 36 160 3.0 7.0 0.00 0.00 0.00 71 1005.8
20221202235913 36 141 2.0 3.0 0.00 0.00 0.00 70 1006.0
20221202235414 36 141 1.0 3.0 0.00 0.00 0.00 70 1005.9
20221202234913 36 82 1.0 3.0 0.00 0.00 0.00 70 1005.9
20221202234413 36 110 2.0 5.0 0.00 0.00 0.00 70 1006.0
20221202233913 36 126 1.0 5.0 0.00 0.00 0.00 70 1006.0
20221202233413 36 152 2.0 3.0 0.00 0.00 0.00 69 1005.9
20221202232912 36 120 2.0 3.0 0.00 0.00 0.00 69 1006.0
20221202232413 36 164 1.0 6.0 0.00 0.00 0.00 68 1005.9
20221202231912 36 140 2.0 3.0 0.00 0.00 0.00 68 1005.9
20221202231412 36 141 2.0 3.0 0.00 0.00 0.00 68 1006.0
20221202230912 36 158 2.0 3.0 0.00 0.00 0.00 67 1005.9
20221202225913 36 154 2.0 3.0 0.00 0.00 0.00 67 1005.9
20221202225413 36 134 2.0 3.0 0.00 0.00 0.00 66 1005.9
20221202224912 36 128 2.0 6.0 0.00 0.00 0.00 67 1005.9
20221202224413 37 139 2.0 3.0 0.00 0.00 0.00 66 1006.1
20221202223912 37 152 2.0 3.0 0.00 0.00 0.00 66 1006.0
20221202222913 37 104 2.0 3.0 0.00 0.00 0.00 64 1006.2
20221202222412 37 189 2.0 3.0 0.00 0.00 0.00 63 1006.2
20221202221912 37 116 2.0 3.0 0.00 0.00 0.00 63 1006.4
20221202221413 37 104 2.0 3.0 0.00 0.00 0.00 62 1006.4
20221202220913 38 146 2.0 5.0 0.00 0.00 0.00 62 1006.4
20221202220412 38 132 2.0 5.0 0.00 0.00 0.00 61 1006.4
20221202215912 38 156 2.0 5.0 0.00 0.00 0.00 61 1006.4
20221202215414 38 117 2.0 5.0 0.00 0.00 0.00 60 1006.3
20221202214913 38 109 1.0 3.0 0.00 0.00 0.00 61 1006.4
20221202214413 38 145 2.0 5.0 0.00 0.00 0.00 60 1006.4
20221202213913 39 140 1.0 6.0 0.00 0.00 0.00 61 1006.7
20221202213412 39 147 2.0 6.0 0.00 0.00 0.00 60 1006.8
20221202212912 39 142 3.0 6.0 0.00 0.00 0.00 60 1006.8
20221202211912 39 130 2.0 6.0 0.00 0.00 0.00 60 1007.1
20221202211412 39 163 3.0 5.0 0.00 0.00 0.00 60 1007.2
20221202210913 39 148 3.0 7.0 0.00 0.00 0.00 59 1007.4
20221202210412 39 126 2.0 3.0 0.00 0.00 0.00 59 1007.4
20221202205913 39 164 3.0 6.0 0.00 0.00 0.00 58 1007.6
20221202205412 39 143 2.0 3.0 0.00 0.00 0.00 59 1007.4
20221202204912 39 142 2.0 5.0 0.00 0.00 0.00 58 1007.7
20221202203412 39 140 2.0 5.0 0.00 0.00 0.00 58 1007.5
20221202202913 39 178 2.0 5.0 0.00 0.00 0.00 59 1007.6
20221202202412 39 200 2.0 5.0 0.00 0.00 0.00 58 1007.6
20221202201913 39 214 3.0 6.0 0.00 0.00 0.00 59 1007.6
20221202200913 39 135 3.0 10.0 0.00 0.00 0.00 58 1007.9
20221202200412 39 179 3.0 7.0 0.00 0.00 0.00 58 1008.2
20221202195913 39 137 3.0 6.0 0.00 0.00 0.00 58 1008.2
20221202195413 39 170 2.0 9.0 0.00 0.00 0.00 58 1008.3
20221202194912 39 150 3.0 7.0 0.00 0.00 0.00 58 1008.4
20221202194412 39 125 3.0 8.0 0.00 0.00 0.00 58 1008.6
20221202193912 39 185 4.0 10.0 0.00 0.00 0.00 59 1008.8
20221202193412 39 163 3.0 7.0 0.00 0.00 0.00 59 1008.8
20221202192913 39 193 1.0 6.0 0.00 0.00 0.00 59 1008.8
20221202192412 39 163 5.0 8.0 0.00 0.00 0.00 58 1009.0
20221202191912 39 166 4.0 10.0 0.00 0.00 0.00 58 1009.0
20221202190912 39 138 3.0 6.0 0.00 0.00 0.00 59 1009.3
20221202190412 39 143 2.0 5.0 0.00 0.00 0.00 59 1009.3
20221202185913 39 141 2.0 8.0 0.00 0.00 0.00 59 1009.3
20221202184912 39 177 3.0 8.0 0.00 0.00 0.00 59 1009.4
20221202184412 39 141 4.0 9.0 0.00 0.00 0.00 59 1009.6
20221202183913 39 200 3.0 8.0 0.00 0.00 0.00 60 1009.7
20221202183412 39 150 3.0 8.0 0.00 0.00 0.00 60 1009.9
20221202182913 39 191 3.0 8.0 0.00 0.00 0.00 60 1010.0
20221202182412 39 170 6.0 9.0 0.00 0.00 0.00 60 1010.1
20221202181913 39 197 6.0 10.0 0.00 0.00 0.00 61 1010.1
20221202181412 39 158 3.0 8.0 0.00 0.00 0.00 60 1010.1
20221202180412 38 175 4.0 7.0 0.00 0.00 0.00 62 1010.3
20221202175913 38 174 5.0 9.0 0.00 0.00 0.00 62 1010.5
20221202175413 38 177 3.0 5.0 0.00 0.00 0.00 62 1010.9
20221202174912 38 160 4.0 9.0 0.00 0.00 0.00 62 1010.9
20221202173913 38 175 4.0 7.0 0.00 0.00 0.00 62 1012.2
20221202173412 37 171 3.0 7.0 0.00 0.00 0.00 62 1012.2
20221202172912 37 188 5.0 8.0 0.00 0.00 0.00 62 1012.2
20221202172412 37 213 4.0 8.0 0.00 0.00 0.00 62 1012.1
20221202171912 37 166 3.0 8.0 0.00 0.00 0.00 62 1012.0
20221202171412 37 175 3.0 10.0 0.00 0.00 0.00 62 1012.1
20221202170912 37 177 5.0 10.0 0.00 0.00 0.00 61 1012.1
20221202170412 37 167 3.0 8.0 0.00 0.00 0.00 62 1012.0
20221202165913 37 157 3.0 8.0 0.00 0.00 0.00 62 1012.1
20221202165412 37 164 4.0 9.0 0.00 0.00 0.00 62 1012.2
20221202164912 37 155 4.0 9.0 0.00 0.00 0.00 62 1012.5
20221202164413 37 154 5.0 9.0 0.00 0.00 0.00 63 1012.5
20221202163912 37 161 3.0 6.0 0.00 0.00 0.00 62 1012.6
20221202163412 37 174 4.0 7.0 0.00 0.00 0.00 63 1012.8
20221202162913 36 149 5.0 10.0 0.00 0.00 0.00 62 1012.9
20221202162412 36 163 4.0 8.0 0.00 0.00 0.00 63 1012.9
20221202161912 36 158 3.0 12.0 0.00 0.00 0.00 63 1013.0
20221202161413 36 179 5.0 10.0 0.00 0.00 0.00 63 1013.2
20221202160912 36 174 3.0 13.0 0.00 0.00 0.00 63 1013.3
20221202160412 36 128 5.0 10.0 0.00 0.00 0.00 63 1013.4
20221202155912 36 152 4.0 10.0 0.00 0.00 0.00 62 1013.4
20221202155412 36 175 6.0 14.0 0.00 0.00 0.00 63 1013.5
20221202154912 36 168 4.0 9.0 0.00 0.00 0.00 63 1013.6
20221202153412 35 165 5.0 12.0 0.00 0.00 0.00 64 1014.0
20221202152913 35 159 5.0 8.0 0.00 0.00 0.00 63 1014.0
20221202152412 35 186 4.0 10.0 0.00 0.00 0.00 64 1014.2
20221202151912 35 169 4.0 12.0 0.00 0.00 0.00 64 1014.2
20221202151413 35 182 6.0 12.0 0.00 0.00 0.00 64 1014.2
20221202150912 34 168 5.0 12.0 0.00 0.00 0.00 64 1014.2
20221202150412 34 182 5.0 12.0 0.00 0.00 0.00 65 1014.6
20221202145912 34 132 4.0 13.0 0.00 0.00 0.00 65 1014.6
20221202145412 34 147 6.0 9.0 0.00 0.00 0.00 66 1014.6
20221202144912 34 168 6.0 12.0 0.00 0.00 0.00 66 1014.7
20221202143912 33 152 5.0 12.0 0.00 0.00 0.00 67 1014.8
20221202143412 33 158 3.0 9.0 0.00 0.00 0.00 67 1014.9
20221202142912 32 166 3.0 10.0 0.00 0.00 0.00 67 1015.0
20221202142411 32 164 3.0 7.0 0.00 0.00 0.00 68 1015.1
20221202141912 32 177 3.0 7.0 0.00 0.00 0.00 68 1015.1
20221202141412 32 183 6.0 14.0 0.00 0.00 0.00 68 1015.1
20221202140912 32 174 5.0 8.0 0.00 0.00 0.00 69 1015.2
20221202135412 31 180 4.0 8.0 0.00 0.00 0.00 70 1015.5
20221202134413 31 173 3.0 8.0 0.00 0.00 0.00 70 1015.6
20221202133912 31 167 3.0 9.0 0.00 0.00 0.00 70 1015.7
20221202133412 31 176 5.0 8.0 0.00 0.00 0.00 70 1015.7
20221202132912 31 170 3.0 9.0 0.00 0.00 0.00 70 1015.7
20221202132412 31 186 4.0 7.0 0.00 0.00 0.00 70 1015.7
20221202131915 31 156 3.0 8.0 0.00 0.00 0.00 70 1015.7
20221202131412 31 167 4.0 8.0 0.00 0.00 0.00 70 1015.7
20221202125912 31 167 3.0 7.0 0.00 0.00 0.00 70 1015.9
20221202125412 31 179 3.0 5.0 0.00 0.00 0.00 69 1015.9
20221202124914 31 192 3.0 6.0 0.00 0.00 0.00 69 1016.1
20221202124412 31 153 2.0 3.0 0.00 0.00 0.00 69 1016.1
20221202123912 31 184 2.0 5.0 0.00 0.00 0.00 69 1016.1
20221202123414 31 161 2.0 7.0 0.00 0.00 0.00 69 1016.1
20221202122912 31 165 3.0 9.0 0.00 0.00 0.00 69 1016.1
20221202122412 31 184 5.0 9.0 0.00 0.00 0.00 69 1016.1
20221202121912 31 180 3.0 9.0 0.00 0.00 0.00 69 1016.1
20221202121412 31 145 3.0 7.0 0.00 0.00 0.00 68 1016.2
20221202120911 31 185 3.0 7.0 0.00 0.00 0.00 68 1016.0
20221202120414 31 184 5.0 8.0 0.00 0.00 0.00 68 1016.1
20221202115912 31 174 3.0 10.0 0.00 0.00 0.00 68 1016.2
20221202114912 31 168 3.0 8.0 0.00 0.00 0.00 67 1016.4
20221202114412 32 156 3.0 7.0 0.00 0.00 0.00 67 1016.3
20221202112912 31 161 4.0 12.0 0.00 0.00 0.00 67 1016.5
20221202112412 31 165 4.0 7.0 0.00 0.00 0.00 67 1016.6
20221202111412 32 156 4.0 8.0 0.00 0.00 0.00 67 1016.6
20221202110912 32 178 5.0 10.0 0.00 0.00 0.00 67 1016.6
20221202110411 32 162 3.0 9.0 0.00 0.00 0.00 67 1016.8
20221202105913 32 175 5.0 8.0 0.00 0.00 0.00 67 1016.8
20221202105412 32 168 4.0 7.0 0.00 0.00 0.00 67 1016.8
20221202104911 32 165 3.0 7.0 0.00 0.00 0.00 67 1016.8
20221202103912 32 178 4.0 10.0 0.00 0.00 0.00 67 1016.7
20221202103411 32 157 4.0 7.0 0.00 0.00 0.00 67 1016.9
20221202102412 32 189 5.0 9.0 0.00 0.00 0.00 67 1017.4
20221202101911 32 187 3.0 6.0 0.00 0.00 0.00 67 1017.4
20221202101412 32 158 4.0 7.0 0.00 0.00 0.00 67 1017.6
20221202100912 32 172 3.0 8.0 0.00 0.00 0.00 67 1017.7
20221202095912 32 166 3.0 6.0 0.00 0.00 0.00 67 1017.8
20221202095412 32 177 4.0 7.0 0.00 0.00 0.00 67 1017.9
20221202094912 32 161 3.0 7.0 0.00 0.00 0.00 67 1018.0
20221202094412 32 177 3.0 8.0 0.00 0.00 0.00 67 1017.9
20221202093912 32 163 3.0 6.0 0.00 0.00 0.00 67 1018.0
20221202093412 32 162 3.0 7.0 0.00 0.00 0.00 67 1018.1
20221202092912 32 163 3.0 8.0 0.00 0.00 0.00 67 1018.1
20221202092412 32 176 3.0 8.0 0.00 0.00 0.00 68 1018.1
20221202091912 32 157 5.0 8.0 0.00 0.00 0.00 68 1017.9
20221202091412 32 180 3.0 9.0 0.00 0.00 0.00 68 1018.1
20221202090412 32 161 4.0 9.0 0.00 0.00 0.00 68 1018.2
20221202085912 32 160 5.0 9.0 0.00 0.00 0.00 69 1018.3
20221202085411 32 170 6.0 12.0 0.00 0.00 0.00 68 1018.4
20221202084911 32 166 3.0 7.0 0.00 0.00 0.00 69 1018.4
20221202084412 32 158 4.0 7.0 0.00 0.00 0.00 69 1018.6
20221202083912 32 170 5.0 10.0 0.00 0.00 0.00 69 1018.7
20221202083411 32 181 4.0 8.0 0.00 0.00 0.00 69 1019.0
20221202082911 32 165 3.0 9.0 0.00 0.00 0.00 69 1019.2
20221202082412 32 161 2.0 8.0 0.00 0.00 0.00 69 1019.4
20221202081911 32 168 5.0 10.0 0.00 0.00 0.00 69 1019.4
20221202081412 32 191 4.0 10.0 0.00 0.00 0.00 70 1019.4
20221202080912 32 188 3.0 9.0 0.00 0.00 0.00 70 1019.6
20221202080412 32 192 3.0 13.0 0.00 0.00 0.00 70 1019.6
20221202075912 32 176 5.0 12.0 0.00 0.00 0.00 70 1019.5
20221202075412 32 156 5.0 12.0 0.00 0.00 0.00 70 1019.5
20221202074912 32 185 6.0 13.0 0.00 0.00 0.00 71 1019.5
20221202073411 31 163 5.0 12.0 0.00 0.00 0.00 71 1019.7
20221202072912 31 189 5.0 10.0 0.00 0.00 0.00 71 1019.8
20221202072412 31 168 4.0 7.0 0.00 0.00 0.00 72 1019.8
20221202071911 31 172 5.0 8.0 0.00 0.00 0.00 72 1019.8
20221202071411 31 183 2.0 7.0 0.00 0.00 0.00 72 1019.8
20221202070912 31 173 5.0 12.0 0.00 0.00 0.00 72 1020.0
20221202070411 31 162 3.0 12.0 0.00 0.00 0.00 73 1020.1
20221202065912 31 156 2.0 7.0 0.00 0.00 0.00 73 1020.3
20221202065411 31 186 3.0 10.0 0.00 0.00 0.00 73 1020.3
20221202064411 30 173 5.0 8.0 0.00 0.00 0.00 74 1020.6
20221202063912 30 177 2.0 5.0 0.00 0.00 0.00 75 1020.7
20221202063412 30 163 4.0 8.0 0.00 0.00 0.00 74 1020.8
20221202062912 30 174 4.0 8.0 0.00 0.00 0.00 75 1021.0
20221202062412 30 152 2.0 3.0 0.00 0.00 0.00 75 1021.0
20221202061914 30 146 3.0 8.0 0.00 0.00 0.00 75 1021.0
20221202061412 30 175 3.0 5.0 0.00 0.00 0.00 75 1021.1
20221202060911 30 189 2.0 7.0 0.00 0.00 0.00 75 1021.2
20221202060412 30 171 3.0 7.0 0.00 0.00 0.00 75 1021.2
20221202055912 30 147 3.0 7.0 0.00 0.00 0.00 75 1021.3
20221202055411 30 152 3.0 7.0 0.00 0.00 0.00 75 1021.4
20221202054911 30 189 2.0 5.0 0.00 0.00 0.00 75 1021.5
20221202054412 30 173 3.0 9.0 0.00 0.00 0.00 75 1021.4
20221202053911 30 179 3.0 8.0 0.00 0.00 0.00 75 1021.5
20221202053412 30 157 3.0 8.0 0.00 0.00 0.00 75 1021.5
20221202052412 30 174 2.0 8.0 0.00 0.00 0.00 75 1021.4
20221202051912 30 159 2.0 6.0 0.00 0.00 0.00 75 1021.7
20221202051412 30 144 3.0 8.0 0.00 0.00 0.00 75 1021.7
20221202050912 30 140 2.0 8.0 0.00 0.00 0.00 75 1021.9